User: anonymous   Login
Location: Bowman Observatory
(41.0326°N, 73.6210°W)
Time: 16:51:48
(UTC-04:00)
Language:

Cosmos 2298 Rocket - Orbit

View from above orbital plane
View from above orbital plane
View from above satellite
View from above satellite

Ground track
Ground track

The orbit data is extracted from the following two-line orbital elements,

1 23432U 94083B   17176.27910078 +.00000005 +00000-0 +11267-4 0  9990
2 23432 074.0332 283.1725 0004528 136.9002 286.9270 14.33475213177263
Epoch (UTC): 25 June 2017 06:41:54
Eccentricity: 0.0004528
inclination: 74.0332°
perigee height: 777 km
apogee height: 783 km
right ascension of ascending node: 283.1725°
argument of perigee: 136.9002°
revolutions per day: 14.33475213
mean anomaly at epoch: 286.9270°
orbit number at epoch: 17726

The dashed part of the orbit path shows where the satellite is in the earth's shadow,  

DLR